GFSNW_850_spd_213.txt.gz
Wind_Speed
49 52 57 60 66 67 57 50 18 38 35 16 11 18 17 10 19 39 34 28 22 27 27 28 22 21 25 16 22 29 19 4 12 21 17 23 25 21 22 6 5 13 12 12
52 57 60 63 69 72 61 44 38 40 45 17 16 27 25 21 13 27 33 28 27 26 24 15 19 23 11 16 19 20 11 6 5 12 7 12 13 23 25 18 12 18 8 2
52 49 59 67 74 77 61 28 12 18 37 38 25 25 33 21 22 11 24 35 29 24 22 18 25 22 11 21 20 23 21 7 12 12 11 14 24 21 23 22 11 16 23 15
35 24 60 72 79 81 57 29 10 28 13 17 25 25 28 36 18 23 11 31 34 22 23 28 25 21 17 15 19 16 17 15 21 23 21 10 12 23 25 29 28 19 17 23
5 27 54 71 80 81 53 19 8 29 12 27 27 30 27 28 37 22 27 27 31 31 26 24 27 21 18 16 9 16 13 8 10 13 16 16 13 22 23 28 28 29 23 24
6 34 52 67 79 79 48 31 24 28 20 20 23 23 29 34 26 30 26 28 30 30 33 20 18 21 17 16 16 13 11 8 6 8 16 5 12 26 27 22 24 22 23 21
2 20 43 67 74 66 48 34 33 13 12 17 21 25 26 36 22 33 19 26 28 33 27 28 27 26 14 12 13 13 12 9 4 2 9 8 12 2 23 28 25 23 24 20
16 33 51 61 67 46 35 30 28 13 8 10 24 25 26 26 34 22 18 30 39 35 18 5 7 3 5 4 2 13 12 9 5 6 12 10 11 6 10 19 22 24 21 18
16 27 38 45 45 41 28 26 25 21 9 12 19 15 21 19 21 22 16 20 33 28 3 5 7 7 8 9 8 2 7 9 8 6 7 11 5 12 12 9 15 15 19 17
4 16 23 29 40 49 30 25 24 20 10 12 4 1 3 25 19 14 6 10 4 17 6 5 8 5 13 14 18 10 7 5 13 9 8 8 6 12 15 10 2 7 15 19
13 14 24 30 35 45 38 19 23 23 13 11 4 5 15 6 9 13 5 8 4 4 6 7 4 5 8 9 16 15 13 12 8 7 9 15 20 15 11 8 12 12 12 13
10 24 23 30 33 34 41 27 20 17 10 3 8 13 19 12 21 24 21 8 10 3 5 3 5 4 6 14 9 15 10 9 9 11 5 2 28 7 10 13 16 14 17 14
29 22 29 27 31 30 32 29 22 8 4 6 9 15 21 25 29 27 9 5 11 7 6 8 3 5 8 9 9 14 8 10 6 9 7 13 19 18 16 16 15 15 14 12
32 2 26 27 27 28 30 30 22 15 6 4 2 7 10 10 13 31 26 10 14 18 12 4 4 4 2 7 5 11 7 15 13 7 12 12 16 20 20 16 15 13 9 7
22 26 17 22 21 26 31 30 25 23 10 1 2 3 16 1 6 19 27 27 25 10 5 3 3 4 5 5 5 7 11 16 12 6 21 9 24 22 20 18 13 10 9 9
25 12 14 17 26 26 23 6 16 20 16 3 1 4 17 14 20 23 22 26 17 6 6 4 5 9 5 6 7 10 24 23 18 9 27 13 26 23 20 16 13 11 10 10
16 21 7 4 6 8 6 5 14 19 14 4 3 2 8 12 13 14 12 13 13 13 7 3 7 8 8 4 5 15 17 24 16 22 27 19 22 20 17 15 12 10 10 9
7 9 18 20 19 18 23 23 22 14 7 5 3 2 1 8 4 3 5 6 6 8 6 10 9 6 3 3 13 24 23 22 23 22 21 21 19 18 16 13 13 12 10 8
2 4 4 4 7 8 7 14 18 15 5 2 0 2 3 4 5 4 5 4 3 5 5 7 7 3 1 15 16 23 25 22 22 20 17 21 20 18 17 15 12 9 7 7
4 2 2 2 2 4 9 2 2 3 3 4 3 4 4 3 4 2 2 3 2 3 4 5 3 5 9 11 18 22 22 19 23 22 20 20 18 18 15 12 8 7 7 7
4 5 2 4 3 3 4 1 1 3 3 3 4 7 7 4 3 2 4 2 1 3 3 3 4 5 9 11 17 20 18 19 20 20 19 17 16 15 12 9 6 5 5 5
4 3 6 5 3 1 2 2 2 2 3 5 9 11 10 3 0 2 1 2 2 4 6 3 7 9 16 13 16 18 19 18 18 17 16 14 13 11 8 7 5 4 5 8
3 3 3 3 1 1 2 4 3 4 4 6 8 7 7 5 3 2 2 1 4 9 3 5 4 14 17 16 18 18 17 17 17 17 14 12 10 8 7 5 3 3 4 7
2 2 3 3 1 3 3 5 7 5 16 18 16 4 2 2 2 2 3 3 4 4 6 5 9 18 19 18 18 19 18 17 15 13 12 10 7 4 3 4 5 7 7 9
3 3 2 4 1 1 3 4 12 21 19 15 10 4 3 2 3 1 4 4 4 4 3 6 15 21 19 19 17 17 15 15 13 10 10 8 8 6 5 6 6 6 11 11
3 4 2 2 5 5 8 9 10 12 12 7 4 3 3 2 3 2 1 3 1 2 4 12 20 19 17 16 14 13 11 9 9 7 8 8 8 7 7 7 7 7 7 7
3 3 3 7 10 5 7 13 7 7 5 2 2 2 3 1 0 2 1 2 6 7 15 15 18 18 19 17 16 15 14 12 11 11 11 10 8 7 6 5 5 5 5 5

GFSNW_850_spd_216.txt.gz
Wind_Speed
42 42 43 47 47 48 47 50 14 41 45 17 10 17 33 26 32 36 15 10 22 28 30 33 27 26 27 19 33 31 27 16 18 23 20 30 26 26 24 8 5 12 10 4
47 43 44 47 49 51 56 35 29 32 50 17 14 24 26 27 34 28 29 10 19 27 24 24 27 25 20 14 24 21 21 6 5 8 6 12 29 27 27 22 9 15 11 3
51 47 43 45 50 54 63 26 10 14 38 43 26 21 27 34 34 33 33 16 18 26 22 18 24 23 13 15 10 16 15 7 11 9 5 11 17 17 21 20 14 13 17 10
54 48 45 41 48 60 63 19 8 19 18 22 32 29 23 30 32 30 22 29 25 25 17 22 19 19 14 13 18 9 12 11 13 11 7 4 18 19 21 27 24 18 15 21
55 50 45 33 52 68 54 14 7 32 16 26 24 28 27 30 31 15 36 24 27 28 18 20 25 25 20 16 13 18 15 11 17 17 19 12 8 17 23 26 27 26 22 20
52 43 37 7 58 87 37 24 19 34 13 24 20 26 32 31 33 27 31 27 19 20 22 19 18 23 23 15 24 19 14 5 12 14 15 3 8 27 23 19 23 21 23 19
49 22 7 38 77 60 26 28 28 13 10 13 23 29 31 32 32 29 25 32 25 20 17 21 18 21 8 11 19 21 18 13 4 5 9 7 12 14 29 26 22 20 21 14
44 1 25 49 56 26 28 21 26 8 6 14 16 26 25 27 26 29 25 27 24 35 18 5 2 2 4 4 6 18 18 9 5 7 8 5 9 13 10 13 19 25 22 13
31 19 29 50 30 28 26 18 16 16 4 8 25 20 22 13 20 16 21 33 28 21 7 4 10 7 10 8 11 6 14 5 4 5 6 12 4 11 15 10 16 16 16 12
16 18 13 36 20 19 21 12 16 9 3 1 8 5 12 13 15 13 13 19 19 17 9 5 3 8 16 14 19 14 9 6 11 8 3 6 4 8 15 9 2 4 15 14
32 3 6 21 23 15 9 11 18 11 5 6 8 7 3 3 3 3 6 12 8 4 5 8 4 4 7 9 19 20 14 11 6 5 6 9 18 16 13 6 6 10 14 14
32 14 19 19 24 25 19 7 23 10 5 1 4 7 7 9 11 7 5 7 6 7 4 3 3 3 2 12 9 18 9 7 9 13 7 5 29 9 18 15 16 14 20 19
29 27 22 24 22 23 30 20 7 2 3 6 10 10 6 13 17 15 4 10 12 14 12 4 2 3 5 5 5 14 6 13 6 9 6 17 20 22 20 21 20 23 21 21
30 26 12 17 23 24 23 28 23 18 3 2 4 7 6 9 14 20 32 40 28 26 15 2 1 2 3 1 7 9 5 12 11 4 13 19 18 24 26 23 23 25 22 20
28 24 3 13 19 19 21 26 27 24 8 2 1 5 8 14 18 26 34 37 36 9 3 3 2 2 2 2 2 7 9 10 10 6 16 6 22 29 27 27 25 23 20 16
24 19 11 11 22 28 23 9 28 29 25 2 2 2 9 13 10 8 22 23 11 7 3 3 5 5 2 4 5 7 15 19 12 6 29 19 27 29 28 27 25 20 17 17
14 23 17 6 17 28 15 4 6 24 18 3 2 2 4 14 11 6 11 9 5 5 3 3 3 3 2 2 3 14 21 24 15 20 30 20 32 30 28 27 21 19 17 15
4 5 20 20 15 13 11 14 17 17 6 1 2 2 2 9 7 3 9 3 3 2 3 4 3 4 2 3 8 21 22 23 21 29 22 27 30 28 25 23 22 19 16 16
3 4 4 8 5 5 7 17 16 10 3 2 2 2 3 3 4 5 7 7 4 5 3 3 4 2 2 11 15 18 28 19 25 29 27 30 28 26 24 22 21 19 18 16
2 4 2 1 3 4 5 3 2 3 4 1 1 2 3 1 3 1 1 3 3 3 4 6 4 6 11 19 19 25 23 27 27 27 25 26 26 26 26 23 20 17 14 12
2 3 2 3 3 4 5 2 3 5 3 3 3 4 6 3 3 2 2 2 1 2 1 2 3 5 8 17 19 24 26 25 23 23 24 25 25 26 25 22 18 13 11 10
6 6 4 2 4 5 3 1 2 2 2 3 6 5 4 3 1 2 2 2 2 3 5 2 4 8 7 19 18 16 21 25 24 24 24 23 23 22 20 17 15 13 14 12
2 3 2 4 2 3 3 6 3 3 3 4 8 5 6 3 1 1 1 1 3 5 1 5 4 12 13 15 20 18 21 24 22 22 21 21 20 19 20 19 16 12 8 7
2 2 3 3 0 3 3 6 4 5 11 12 11 4 2 2 1 2 3 2 3 2 3 3 9 14 19 17 18 20 19 23 23 23 20 18 18 20 16 13 10 10 9 8
2 4 3 2 2 4 4 9 5 12 15 11 5 3 2 2 1 1 3 1 3 3 1 5 13 21 19 19 21 25 24 23 23 22 19 18 15 13 12 11 11 7 6 3
2 3 2 4 2 2 2 7 7 10 12 6 2 2 2 1 3 3 3 4 2 3 5 17 24 22 21 20 19 19 20 19 18 17 15 15 13 11 10 7 5 4 3 2
2 1 4 13 8 4 4 6 3 2 4 1 2 1 3 0 2 3 3 3 5 8 16 19 23 22 22 22 21 20 19 17 17 16 15 14 12 9 8 7 4 3 2 2

GFSNW_850_spd_222.txt.gz
Wind_Speed
35 34 34 33 25 18 18 20 9 12 28 11 6 16 35 27 20 31 15 7 11 10 28 20 30 27 27 28 27 31 36 14 16 16 6 21 33 27 22 9 18 10 7 25
36 35 36 33 24 18 21 14 17 18 38 12 15 20 26 18 21 22 24 19 18 17 11 19 24 24 25 13 32 21 21 13 9 15 17 11 8 26 30 10 5 25 11 23
38 37 38 33 28 23 24 13 5 19 32 32 24 20 25 33 28 21 23 18 25 20 17 12 8 22 21 32 22 43 25 20 25 19 31 15 15 18 23 27 14 19 27 4
40 38 39 37 26 19 29 23 12 14 14 16 27 27 21 25 21 28 16 18 21 22 18 24 12 18 18 22 28 27 17 24 25 34 17 14 21 28 23 23 36 20 30 23
40 39 37 38 25 24 26 16 13 15 17 21 24 26 28 34 32 15 26 22 28 30 26 19 3 2 5 11 24 16 25 12 24 30 34 27 9 23 25 29 29 22 13 17
40 39 38 38 31 28 28 43 43 31 19 23 22 29 33 34 25 26 22 35 27 20 29 24 28 35 24 17 14 11 20 21 18 29 31 24 25 22 31 29 24 31 24 33
39 40 37 37 33 28 31 35 29 12 11 20 28 29 25 28 31 30 26 25 19 48 36 30 31 25 21 24 28 14 12 19 18 18 22 25 7 27 28 33 33 31 28 21
39 39 38 37 36 24 24 11 9 9 7 16 16 24 27 20 22 23 20 31 51 16 17 10 14 16 11 24 23 23 21 18 12 11 22 3 10 11 24 21 28 26 29 23
39 39 35 33 33 19 17 18 7 3 5 13 20 24 19 17 15 14 19 24 17 22 4 6 15 15 14 11 10 14 27 22 13 12 13 18 12 26 21 8 16 25 25 22
39 39 33 31 29 15 14 13 10 3 2 18 22 19 19 20 12 4 4 9 11 22 4 6 8 12 10 20 17 13 7 8 18 6 8 3 7 17 19 17 18 23 29 30
39 37 34 31 25 7 9 11 10 4 4 6 11 18 18 11 16 9 3 4 6 1 10 9 8 10 9 17 15 12 9 6 6 6 3 3 9 21 27 25 3 10 34 36
37 35 39 26 17 8 4 0 4 7 7 5 13 12 17 26 23 19 10 5 4 5 4 4 2 8 4 10 17 9 7 6 2 8 7 5 25 24 29 24 10 10 24 31
35 31 38 23 1 8 5 8 7 7 4 6 5 5 11 12 16 20 6 5 9 6 7 2 4 6 4 9 11 16 15 8 0 4 5 4 9 11 19 21 18 22 32 36
33 30 36 15 3 6 9 8 3 4 4 2 2 5 7 15 15 17 15 10 12 4 10 3 3 2 2 7 10 4 3 3 16 4 6 5 1 18 26 19 23 24 26 35
30 26 33 11 4 10 8 6 5 5 1 1 1 3 10 12 14 17 18 20 17 4 2 3 5 3 3 3 2 6 6 7 9 12 10 5 4 21 29 28 28 33 36 33
27 22 25 13 4 8 7 4 8 8 5 1 2 3 7 12 10 10 12 15 15 12 6 3 5 8 5 4 4 7 11 10 11 4 18 12 28 24 27 36 34 35 39 44
22 18 15 19 5 10 4 2 1 5 11 2 2 2 5 11 8 6 8 15 13 14 7 5 6 5 11 3 8 8 13 3 6 19 28 16 27 19 28 37 35 37 35 42
17 12 8 8 9 3 7 11 4 12 8 4 2 2 2 8 4 2 5 4 12 14 5 5 5 6 3 5 7 12 14 20 14 12 15 24 27 32 30 29 35 35 37 42
14 8 7 7 2 3 5 4 9 16 5 1 1 2 3 5 3 2 2 4 3 2 3 3 3 3 5 9 15 17 30 20 28 20 19 30 32 34 39 34 35 39 37 38
7 7 2 3 4 2 3 1 1 1 3 3 2 2 2 3 2 2 2 2 1 2 1 3 1 3 9 15 13 24 29 31 40 30 22 19 27 35 36 35 36 38 38 38
4 4 2 6 2 4 2 2 1 1 2 4 3 4 2 4 2 2 2 1 1 2 1 2 1 3 4 7 13 28 29 30 31 26 42 42 36 33 34 34 37 36 35 35
10 12 12 4 3 3 1 3 2 3 3 1 3 3 2 2 3 1 2 2 2 2 1 2 2 3 15 8 17 23 26 29 23 30 35 37 39 37 37 37 35 34 32 31
1 3 3 2 3 3 2 2 1 3 1 2 1 1 2 2 4 2 2 2 1 1 2 1 2 3 7 13 26 27 30 32 31 29 32 40 41 38 38 34 32 33 33 29
3 3 4 3 4 2 1 2 2 4 5 6 5 1 1 4 1 1 1 2 1 2 2 0 1 2 10 18 27 38 37 39 38 36 34 34 35 37 38 39 37 34 30 24
2 1 2 2 3 6 8 9 5 3 10 9 0 3 1 2 1 1 2 3 3 2 1 1 3 9 20 20 28 30 32 32 35 33 31 33 39 38 34 29 26 22 21 19
2 2 2 3 1 3 5 6 4 6 9 6 2 1 1 2 2 1 3 2 1 2 1 4 17 20 22 23 27 31 33 37 38 39 40 38 34 32 29 23 20 18 16 17
2 1 3 10 2 1 2 4 7 8 1 1 1 1 4 1 2 2 3 2 2 3 8 14 18 26 25 25 28 30 33 36 36 35 33 31 25 25 24 23 19 16 16 15

GFSNW_850_spd_225.txt.gz
Wind_Speed
26 25 24 23 23 22 16 17 5 16 28 10 5 15 29 18 10 20 16 10 14 19 21 24 14 19 16 26 33 33 34 15 20 19 5 16 28 33 28 11 29 19 16 26
26 26 25 23 24 18 19 7 9 23 38 11 17 20 22 19 17 16 9 19 13 20 23 13 16 19 19 30 20 21 20 13 11 15 19 19 16 32 30 25 3 27 11 21
27 26 25 23 24 22 20 9 4 11 24 16 19 20 24 26 18 15 21 10 10 6 15 10 10 11 7 10 12 30 18 18 19 17 26 20 14 22 29 29 16 28 20 13
27 26 26 25 23 27 24 17 8 9 6 15 17 16 17 27 22 22 20 17 21 24 20 16 15 16 19 18 23 15 19 17 27 33 33 15 25 23 26 32 34 25 39 29
27 26 26 26 23 26 25 7 4 8 16 18 22 27 28 35 31 20 30 22 26 20 18 19 22 21 20 26 9 6 13 12 19 29 31 27 25 28 27 26 37 31 39 30
27 27 27 27 24 21 20 18 20 22 14 17 17 29 36 35 28 22 33 34 22 15 27 32 24 11 10 10 7 8 6 4 8 21 33 31 32 22 30 29 30 36 28 47
28 29 29 28 25 22 27 28 26 8 20 17 28 36 34 33 34 37 30 29 21 43 35 10 11 15 16 16 19 11 6 9 4 11 20 31 15 30 23 26 30 30 31 39
29 30 30 30 28 25 26 28 23 10 13 16 29 33 32 30 30 31 30 33 50 15 20 6 5 4 8 20 25 22 17 14 10 8 14 16 17 24 33 26 29 32 34 31
31 32 30 28 29 29 26 27 20 20 6 10 24 19 23 17 19 18 24 36 27 23 3 4 8 7 6 6 5 23 19 19 13 19 21 15 21 29 32 37 34 30 24 31
33 34 32 30 31 29 23 27 11 17 5 8 14 6 12 17 11 10 3 18 9 28 8 8 6 9 7 10 13 6 10 13 16 21 12 10 17 26 16 28 16 33 33 35
34 34 33 31 34 27 21 22 13 11 7 5 4 8 13 10 16 10 3 11 4 6 7 5 4 3 6 6 12 5 15 8 5 5 9 17 5 11 23 28 28 16 35 39
35 34 33 31 33 22 13 16 13 10 6 4 2 5 16 24 27 20 9 4 5 5 3 2 3 2 2 7 9 11 15 15 12 10 7 6 21 18 23 10 29 18 21 35
34 33 30 30 28 7 12 3 3 5 4 5 2 6 10 15 13 18 5 4 8 8 9 4 3 6 3 8 10 6 5 15 17 6 8 9 14 28 30 32 23 31 23 35
33 33 28 30 17 9 10 8 4 6 4 1 3 3 9 13 13 18 25 13 11 6 8 2 4 3 4 4 6 8 10 6 6 11 16 17 27 37 34 28 16 15 19 30
31 31 27 28 6 9 9 8 7 5 3 1 3 5 5 9 12 10 10 11 12 5 3 3 4 3 1 2 1 7 4 9 7 9 18 11 17 27 35 28 18 20 27 23
27 28 22 20 12 8 8 4 8 8 5 2 1 4 4 9 11 11 12 13 12 6 4 3 5 4 3 3 9 16 20 25 27 16 13 23 23 25 29 33 27 17 26 33
24 21 14 14 12 9 5 2 2 6 6 2 1 2 2 6 5 3 7 11 7 10 4 4 3 3 7 5 16 8 14 25 29 29 19 8 13 6 17 22 22 24 27 27
21 16 10 7 9 4 6 11 9 7 6 3 2 2 1 9 5 2 8 6 11 10 4 3 3 5 5 7 12 24 30 26 18 13 16 7 14 19 22 32 33 31 35 37
15 10 10 6 2 3 3 3 7 15 8 2 1 2 3 8 4 5 4 7 3 8 5 4 7 5 7 10 19 16 22 25 21 17 19 26 28 22 23 26 34 37 32 37
9 6 2 1 5 4 6 2 0 3 3 2 2 1 2 7 4 2 1 4 2 2 3 2 4 5 9 17 16 21 26 29 27 23 15 27 25 26 22 20 24 30 38 39
5 4 2 4 2 3 2 1 1 1 2 3 3 4 2 6 2 2 4 2 2 2 2 2 2 3 4 12 23 22 26 31 38 39 36 36 37 27 24 20 23 30 37 43
11 13 11 5 2 3 2 2 2 3 2 1 2 3 5 2 5 2 2 2 2 4 1 2 3 3 12 17 18 19 24 25 24 21 25 26 25 36 36 29 32 36 37 40
3 2 3 2 2 2 2 2 1 3 1 2 1 2 3 1 4 2 2 3 3 1 2 3 2 4 12 14 10 10 20 20 16 16 22 27 30 33 38 38 38 40 39 35
3 3 4 3 4 2 2 2 3 5 5 4 5 1 1 3 2 2 2 3 1 3 2 3 3 4 11 14 14 16 23 30 30 30 34 39 40 41 44 42 34 30 32 33
3 1 3 3 2 6 8 9 5 5 4 5 1 1 1 2 1 2 2 4 3 2 2 2 2 6 12 15 19 21 24 27 31 35 39 42 44 39 33 27 32 34 35 33
3 3 1 3 1 3 3 4 2 8 1 2 2 2 1 3 2 1 2 2 1 3 2 2 7 10 13 12 18 19 21 25 28 32 35 34 30 27 32 35 36 34 32 27
2 2 3 1 4 2 2 3 7 10 6 2 1 1 3 1 1 1 2 2 3 3 2 4 8 11 12 15 17 19 24 29 31 29 27 29 34 38 37 33 27 24 22 22

GFSNW_850_spd_228.txt.gz
Wind_Speed
24 23 23 21 20 21 20 15 4 8 22 9 5 18 5 3 3 13 11 2 6 13 13 8 9 5 8 12 5 23 25 12 18 17 5 20 27 26 22 9 20 16 10 22
24 25 25 21 20 18 21 8 10 10 22 7 15 9 24 10 4 5 6 9 8 6 10 6 12 15 17 26 10 7 15 7 11 18 16 8 30 31 26 22 4 23 10 21
24 24 25 21 19 19 19 6 3 8 27 22 8 15 18 19 16 17 9 3 14 12 16 9 6 14 7 0 7 6 9 4 14 19 26 17 11 22 26 25 15 24 22 39
24 25 24 22 20 19 18 8 5 8 5 13 11 8 6 25 21 16 18 13 23 16 15 8 16 13 15 17 16 7 3 7 9 28 32 27 25 26 24 33 34 24 35 31
23 23 23 22 22 19 20 11 6 3 5 9 6 22 19 24 16 13 18 23 26 19 23 18 18 19 15 17 2 3 3 8 13 18 18 25 25 29 26 26 30 32 33 30
22 23 23 23 22 18 17 21 26 19 6 8 10 14 19 27 21 29 30 29 20 14 32 33 30 8 10 18 4 4 5 4 7 22 12 17 11 22 26 26 28 28 31 42
26 23 25 25 22 19 23 26 24 12 13 11 15 19 20 24 27 32 34 34 22 49 18 13 22 21 16 17 15 7 6 5 3 12 6 15 5 11 16 19 25 31 34 36
22 24 26 26 24 23 25 29 28 21 10 11 15 19 23 27 35 32 33 42 52 25 29 7 4 1 4 12 15 15 14 9 6 11 14 17 23 18 14 14 28 31 32 37
25 26 26 28 27 26 27 32 30 25 8 13 24 18 21 20 20 23 27 49 44 26 5 4 8 7 5 5 6 19 19 15 10 4 10 11 22 8 7 17 19 23 25 34
27 27 27 29 30 28 28 36 32 31 10 20 18 12 11 21 15 10 4 19 14 31 8 9 6 6 8 4 6 5 4 4 16 15 11 8 27 21 25 11 19 19 29 31
27 27 29 31 31 30 32 39 35 37 19 27 24 27 16 11 9 6 2 9 4 7 8 7 4 4 7 6 5 7 10 7 7 9 12 19 8 9 13 6 17 15 25 41
27 30 31 31 32 28 34 38 17 24 25 12 24 24 21 27 18 9 14 3 5 5 4 3 3 3 1 7 8 5 7 8 5 7 6 11 8 5 10 14 23 22 21 35
29 30 30 31 32 28 33 23 14 12 10 13 12 10 9 11 20 15 3 2 9 6 6 5 3 4 5 5 6 4 6 8 10 14 22 27 31 36 28 28 27 24 35 31
27 29 30 31 31 32 18 15 10 7 3 2 4 8 6 4 8 13 22 5 11 6 5 1 2 2 4 5 6 9 6 7 15 15 20 17 32 27 25 32 34 31 34 39
28 29 29 30 26 26 11 12 12 11 5 2 5 11 7 4 5 11 12 15 9 5 3 3 4 3 2 2 2 6 7 13 9 12 13 10 17 27 35 27 29 37 33 32
27 28 28 23 18 18 7 3 9 13 9 4 3 4 5 6 4 6 8 10 7 5 4 3 3 4 4 4 8 14 20 24 26 20 31 30 33 32 35 31 34 35 33 22
27 27 23 17 14 12 5 2 3 4 8 3 3 3 1 3 4 2 3 5 3 3 3 3 3 2 5 3 18 7 16 26 37 42 35 27 32 25 28 25 29 32 21 34
26 24 17 11 10 6 4 7 13 7 7 4 2 3 2 5 3 2 6 4 7 8 3 2 2 4 3 8 12 12 33 39 38 39 35 35 36 30 28 23 17 20 23 26
25 17 11 10 4 3 4 8 3 10 9 2 2 2 3 4 2 3 4 6 3 7 4 3 6 3 7 10 10 12 26 26 31 30 33 32 29 21 15 15 19 25 26 28
14 5 3 2 3 5 5 3 2 3 4 4 2 2 2 5 3 2 0 3 2 2 4 4 4 7 19 28 29 25 25 25 27 21 12 22 21 19 16 18 18 23 28 32
6 5 3 8 4 4 2 1 2 1 2 3 2 4 2 6 3 3 5 2 2 2 3 2 3 3 3 13 23 26 27 30 34 31 31 29 28 30 27 21 22 26 31 35
10 12 13 5 3 4 2 2 1 3 2 2 2 2 4 3 5 2 3 2 2 3 0 2 3 3 14 21 22 27 26 26 29 30 28 29 27 22 29 29 28 31 35 39
5 3 3 3 3 0 3 2 1 2 2 3 2 2 3 2 4 2 2 3 3 1 1 3 3 6 18 22 26 26 20 17 17 22 28 33 32 27 29 28 30 34 41 44
4 3 4 4 3 3 2 2 2 5 4 4 4 2 3 3 2 2 2 3 1 2 2 3 4 8 18 19 19 20 18 11 13 16 25 30 35 35 34 32 35 37 40 41
4 2 4 4 2 4 6 6 3 3 5 3 1 3 1 2 2 2 2 4 3 3 2 2 6 14 15 17 15 16 18 22 21 22 28 30 34 38 40 38 42 45 44 40
4 5 2 2 2 3 2 1 2 5 1 1 1 1 1 3 2 2 3 2 1 3 3 7 11 9 11 13 13 12 12 18 23 26 27 28 31 36 39 38 33 30 30 34
3 3 5 3 3 2 4 3 3 8 3 2 1 0 3 1 1 2 1 3 4 6 9 9 6 5 7 7 6 10 14 17 22 25 28 30 31 30 28 30 30 33 34 31